This demonstration page uses our WeatherBlox Daily Observations layout. Learn more.

41.55636, -103.73856

Hourly Observations for December 12, 2016

Temp ( °F °C ) Dew Point ( °F °C ) Humidity (%) Winds ( mph kmh ) Pressure ( in mb ) Visibility ( mi km ) Precip ( " mm )
12:53 am 00:53 Clear 12 -11.1 7 -13.9 80 80 Calm 30.01 1016 10 16.0934 0 0
1:53 am 01:53 Clear 10 -12.2 5 -15 80 80 Calm 30.04 1017 10 16.0934 0 0
2:53 am 02:53 Clear 11 -11.7 5 -15 77 77 Calm 30.03 1017 10 16.0934 0 0
3:53 am 03:53 Clear 13 -10.6 6 -14.4 74 74 W 5 7 30.01 1016 10 16.0934 0 0
4:53 am 04:53 Clear 12 -11.1 7 -13.9 80 80 NW 6 9 30.01 1016 10 16.0934 0 0
5:53 am 05:53 Clear 13 -10.6 7 -13.9 77 77 WSW 3 6 30.01 1016 10 16.0934 0 0
6:53 am 06:53 Clear 14 -10 8 -13.3 77 77 NNW 6 9 30.02 1017 10 16.0934 0 0
7:53 am 07:53 Sunny 16 -8.9 9 -12.8 74 74 WNW 5 7 30.03 1017 10 16.0934 0 0
8:53 am 08:53 Sunny 27 -2.8 19 -7.2 72 72 NW 12 19 30.01 1016 10 16.0934 0 0
9:53 am 09:53 Sunny 34 1.1 21 -6.1 59 59 WNW 14 22 30 1016 10 16.0934 0 0
10:53 am 10:53 Sunny 40 4.4 21 -6.1 47 47 WNW 17 28 29.96 1015 10 16.0934 0 0
11:53 am 11:53 Sunny 41 5 17 -8.3 38 38 WNW 21 33 29.94 1014 10 16.0934 0 0
12:53 pm 12:53 Sunny 44 6.7 17 -8.3 34 34 W 24 39 29.91 1013 10 16.0934 0 0
1:53 pm 13:53 Sunny 42 5.6 14 -10 32 32 WNW 22 35 29.94 1014 10 16.0934 0 0
2:53 pm 14:53 Sunny 40 4.4 14 -10 35 35 WNW 17 28 29.96 1015 10 16.0934 0 0
3:53 pm 15:53 Sunny 38 3.3 14 -10 37 37 WNW 13 20 29.99 1016 10 16.0934 0 0
4:53 pm 16:53 Clear 29 -1.7 13 -10.6 51 51 ENE 13 20 30.05 1018 10 16.0934 0 0
5:53 pm 17:53 Clear 23 -5 12 -11.1 63 63 E 8 13 30.08 1019 10 16.0934 0 0
6:53 pm 18:53 Clear 17 -8.3 8 -13.3 68 68 E 8 13 30.12 1020 10 16.0934 0 0
7:53 pm 19:53 Clear 13 -10.6 6 -14.4 74 74 E 10 17 30.17 1022 10 16.0934 0 0
8:53 pm 20:53 Clear 9 -12.8 4 -15.6 80 80 E 9 15 30.17 1022 10 16.0934 0 0
9:53 pm 21:53 Clear 6 -14.4 2 -16.7 83 83 ESE 7 11 30.18 1022 10 16.0934 0 0
10:53 pm 22:53 Mostly Cloudy 7 -13.9 2 -16.7 80 80 E 9 15 30.19 1022 10 16.0934 0 0
11:53 pm 23:53 Partly Cloudy 6 -14.4 0 -17.8 76 76 E 7 11 30.2 1023 10 16.0934 0 0

Powered by AerisWeather